[[{"header":{"parameterUnit":"m.s-1","parameterCategory":1,"la1":30.2991,"la2":30.254,"lo1":-89.0895,"lo2":-89.0444,"dy":0.0017,"dx":0.0017,"nx":28,"ny":28,"refTime":"2025-03-30T09:00:00:Z","depth":0,"parameterNumber":2,"parameterNumberName":"U-component_of_WINDS"},"data":[0,0,0,0,0,0,0,0,0,0,0,0,0,0,0,0,0,0,0,0,0,0,0,0,0,0,0,0,0,0,0,0,0,0,0,0,0,0,0,0,0,0,0,0,0,0,0,0,0,0,0,0,0,0,0,0,0,0,-2.0282,-2.0282,0,-2.0268,-2.0268,-2.0268,-2.0221,-2.022,-2.0219,-2.0218,-2.0205,-2.0206,-2.0206,0,0,0,0,0,0,0,0,0,0,0,0,0,-2.0267,-2.0268,-2.0282,-2.0282,-2.0282,-2.0269,-2.0268,-2.0268,-2.0222,-2.022,-2.0219,-2.0218,-2.0205,-2.0205,-2.0206,0,0,0,0,0,0,0,0,0,0,0,0,0,-2.0266,-2.0268,-2.0282,-2.0257,-2.0254,-2.0269,-2.0268,-2.0268,-2.0222,-2.022,-2.0219,-2.0217,-2.0204,-2.0205,-2.0206,-2.0244,0,0,-2.0209,-2.021,0,0,0,0,0,0,0,0,-2.0266,-2.0266,-2.0261,-2.0259,-2.0256,-2.0245,-2.0258,-2.026,-2.0222,-2.0234,-2.0218,-2.0216,-2.022,-2.0219,-2.022,-2.0243,-2.0243,-2.0209,-2.021,-2.021,-2.0211,0,0,0,0,0,0,0,-2.0266,-2.0267,-2.0277,-2.0261,-2.0258,-2.0246,-2.0244,-2.0258,-2.0236,-2.0233,-2.023,-2.0229,-2.0218,-2.0219,-2.0219,-2.0243,-2.0209,-2.021,-2.0211,-2.0211,-2.0294,-2.0296,0,0,0,0,0,0,-2.027,-2.0267,-2.0277,-2.0276,-2.0257,-2.0248,-2.0245,-2.025,-2.0236,-2.0232,-2.023,-2.0226,-2.0218,-2.0218,-2.0219,-2.026,-2.021,-2.0211,-2.0212,-2.0292,-2.0294,-2.0296,0,0,0,0,0,0,-2.027,-2.0271,-2.0278,-2.0271,-2.0271,-2.025,-2.0255,-2.0251,-2.0252,-2.0233,-2.0229,-2.0235,-2.0217,-2.0217,-2.0238,-2.0259,-2.0212,-2.0212,-2.029,-2.0293,-2.0295,-2.0344,0,0,0,0,0,0,-2.027,-2.0271,-2.0285,-2.0271,-2.0271,-2.0297,-2.0257,-2.0252,-2.0254,-2.0249,-2.0237,-2.0234,-2.0216,-2.0236,-2.0239,-2.0259,-2.0213,-2.0288,-2.0292,-2.0294,-2.034,-2.0347,-2.0354,0,0,0,0,0,-2.0269,-2.03,-2.0286,-2.0288,-2.0288,-2.0298,-2.0298,-2.0276,-2.0256,-2.0269,-2.0257,-2.0234,-2.0257,-2.0239,-2.0241,-2.0262,-2.0287,-2.0291,-2.0294,-2.0337,-2.0346,-2.0354,0,0,0,0,0,0,-2.0318,-2.0298,-2.0282,-2.031,-2.0306,-2.029,-2.0306,-2.0287,-2.0289,-2.0285,-2.0258,-2.0256,-2.0279,-2.0273,-2.0254,-2.0297,-2.0268,-2.0272,-2.03,-2.0308,-2.0315,-2.0315,-2.0214,0,0,0,0,0,-2.0332,-2.0341,-2.0323,-2.0349,-2.0348,-2.0328,-2.0331,-2.0315,-2.031,-2.0308,-2.0298,-2.0294,-2.0299,-2.0304,-2.0309,-2.034,-2.0336,-2.0356,-2.0363,-2.0368,-2.0371,-2.0385,-2.0393,-2.0308,-2.0308,-2.0308,0,0,-2.036,-2.0351,-2.0358,-2.0359,-2.0354,-2.0363,-2.0327,-2.0339,-2.0346,-2.031,-2.0327,-2.032,-2.0314,-2.0339,-2.035,-2.0335,-2.0394,-2.0373,-2.0378,-2.0378,-2.039,-2.0398,-2.0405,-2.0311,-2.031,-2.031,0,0,-2.0417,-2.0411,-2.0431,-2.0427,-2.042,-2.0406,-2.0411,-2.0398,-2.0391,-2.0409,-2.0381,-2.039,-2.0401,-2.0397,-2.0397,-2.0452,-2.043,-2.0454,-2.0489,-2.0503,-2.051,-2.0516,-2.0533,-2.054,-2.0458,-2.0458,-2.0458,0,-2.0453,-2.0466,-2.0444,-2.0457,-2.0458,-2.0426,-2.0445,-2.0443,-2.0438,-2.0438,-2.0422,-2.0434,-2.0428,-2.0451,-2.0464,-2.0466,-2.047,-2.0454,-2.0511,-2.0517,-2.0522,-2.0538,-2.0545,-2.0461,-2.0461,-2.046,-2.046,0,-2.051,-2.052,-2.0538,-2.0532,-2.0535,-2.0552,-2.0531,-2.0537,-2.0521,-2.0509,-2.0526,-2.0518,-2.0519,-2.0524,-2.0509,-2.0545,-2.0535,-2.0516,-2.0485,-2.0533,-2.0547,-2.0554,-2.0465,-2.0464,-2.0463,-2.0462,0,0,-2.0596,-2.0578,-2.0584,-2.0581,-2.057,-2.0578,-2.0593,-2.0594,-2.0598,-2.0596,-2.0607,-2.0618,-2.0599,-2.0598,-2.0583,-2.0595,-2.0637,-2.0573,-2.0573,-2.0583,-2.0673,-2.0686,-2.0694,-2.0623,-2.0625,-2.0626,-2.0673,0,-2.0647,-2.0671,-2.0651,-2.0678,-2.0686,-2.0657,-2.0669,-2.0665,-2.0654,-2.0659,-2.0648,-2.0655,-2.0631,-2.063,-2.0641,-2.0629,-2.0654,-2.0626,-2.0632,-2.0632,-2.0632,-2.0702,-2.0716,-2.0761,-2.0679,-2.068,-2.068,0,-2.071,-2.071,-2.0738,-2.0724,-2.0727,-2.0739,-2.0738,-2.0744,-2.0737,-2.0729,-2.0728,-2.0709,-2.0722,-2.0695,-2.0712,-2.0693,-2.0695,-2.069,-2.0691,-2.0688,-2.0657,-2.0699,-2.0775,-2.0781,-2.069,-2.0689,-2.0688,0,-2.0766,-2.0773,-2.079,-2.0789,-2.0774,-2.0783,-2.0778,-2.077,-2.0771,-2.0771,-2.0771,-2.0773,-2.0773,-2.0774,-2.0756,-2.0738,-2.0775,-2.0746,-2.0767,-2.0767,-2.0774,-2.0773,-2.0848,-2.078,-2.0779,-2.0779,-2.0779,0,-2.0824,-2.0842,-2.0815,-2.0825,-2.0844,-2.0821,-2.084,-2.0832,-2.0825,-2.0833,-2.0809,-2.0816,-2.0792,-2.0798,-2.0784,-2.0799,-2.08,-2.0793,-2.0788,-2.0793,-2.0794,-2.0792,-2.0787,-2.0781,-2.0781,-2.078,-2.078,0,-2.0889,-2.0872,-2.0888,-2.0873,-2.087,-2.0884,-2.0871,-2.088,-2.0868,-2.0878,-2.0879,-2.0861,-2.0866,-2.0848,-2.085,-2.0841,-2.0862,-2.0854,-2.0864,-2.0861,-2.0881,-2.0879,-2.0956,-2.0964,-2.0893,-2.0893,-2.0894,0,-2.0926,-2.0938,-2.0925,-2.0928,-2.0923,-2.0929,-2.093,-2.0909,-2.0911,-2.0905,-2.0914,-2.0917,-2.0917,-2.0927,-2.0913,-2.0915,-2.0905,-2.0932,-2.0905,-2.0909,-2.0902,-2.09,-2.0901,-2.0937,-2.0938,-2.0938,-2.0939,0,-2.0992,-2.0983,-2.0985,-2.0985,-2.0987,-2.0985,-2.0982,-2.0987,-2.0963,-2.0967,-2.0972,-2.0972,-2.0974,-2.0977,-2.0975,-2.0969,-2.095,-2.0948,-2.0952,-2.0956,-2.096,-2.0956,-2.0877,-2.0946,-2.0945,-2.0944,-2.0944,-2.0944,-2.1042,-2.1051,-2.1042,-2.1046,-2.1041,-2.1039,-2.1046,-2.1035,-2.1038,-2.1037,-2.1025,-2.1031,-2.1024,-2.102,-2.1016,-2.102,-2.1008,-2.1015,-2.1016,-2.1017,-2.102,-2.0962,-2.1021,-2.102,-2.102,-2.102,-2.102,0,-2.1105,-2.1098,-2.1101,-2.1097,-2.11,-2.1082,-2.1077,-2.108,-2.1086,-2.1081,-2.1082,-2.1087,-2.1089,-2.1076,-2.1077,-2.1083,-2.1074,-2.1083,-2.1081,-2.108,-2.1032,-2.1027,-2.109,-2.109,-2.109,-2.109,-2.109,-2.109,-2.1138,-2.1151,-2.1141,-2.1152,-2.1145,-2.1151,-2.1149,-2.1147,-2.1142,-2.1148,-2.115,-2.1141,-2.1133,-2.1132,-2.1134,-2.113,-2.113,-2.1142,-2.1135,-2.109,-2.1083,-2.1077,-2.1072,-2.1143,-2.1143,-2.1182,-2.1182,-2.1182]},{"header":{"parameterUnit":"m.s-1","parameterCategory":1,"la1":30.2991,"la2":30.254,"lo1":-89.0895,"lo2":-89.0444,"dy":0.0017,"dx":0.0017,"nx":28,"ny":28,"refTime":"2025-03-30T09:00:00:Z","depth":0,"parameterNumber":3,"parameterNumberName":"V-component_of_WINDS"},"data":[0,0,0,0,0,0,0,0,0,0,0,0,0,0,0,0,0,0,0,0,0,0,0,0,0,0,0,0,0,0,0,0,0,0,0,0,0,0,0,0,0,0,0,0,0,0,0,0,0,0,0,0,0,0,0,0,0,0,4.1197,4.1196,0,4.1179,4.1178,4.1178,4.1192,4.1193,4.1194,4.1194,4.1171,4.117,4.1169,0,0,0,0,0,0,0,0,0,0,0,0,0,4.1242,4.1241,4.1197,4.1196,4.1196,4.1179,4.1178,4.1178,4.1192,4.1193,4.1194,4.1194,4.1171,4.117,4.1168,0,0,0,0,0,0,0,0,0,0,0,0,0,4.1223,4.1241,4.1197,4.1201,4.1202,4.1179,4.1178,4.1178,4.1192,4.1193,4.1194,4.1195,4.1172,4.117,4.1168,4.1138,0,0,4.1163,4.1162,0,0,0,0,0,0,0,0,4.1224,4.1221,4.1201,4.1201,4.1201,4.1189,4.1186,4.1165,4.1192,4.1195,4.1194,4.1195,4.1176,4.1174,4.1168,4.1137,4.1136,4.1163,4.1161,4.1161,4.116,0,0,0,0,0,0,0,4.1225,4.1222,4.1189,4.1201,4.1201,4.1204,4.1202,4.1182,4.118,4.1195,4.1196,4.1194,4.1176,4.117,4.1168,4.1136,4.1163,4.1161,4.116,4.1159,4.1084,4.1083,0,0,0,0,0,0,4.1227,4.1223,4.119,4.1189,4.1215,4.1202,4.12,4.1192,4.1181,4.118,4.1193,4.1195,4.1172,4.117,4.1167,4.1134,4.1161,4.1159,4.1158,4.1085,4.1084,4.1083,0,0,0,0,0,0,4.1228,4.1223,4.1191,4.1206,4.1202,4.12,4.1191,4.1191,4.1185,4.1179,4.1179,4.1187,4.1173,4.1169,4.1147,4.1133,4.1158,4.1157,4.1086,4.1084,4.1083,4.1066,0,0,0,0,0,0,4.1229,4.1224,4.1212,4.1206,4.1202,4.1171,4.119,4.119,4.1182,4.1184,4.1174,4.1173,4.1173,4.1149,4.1145,4.1131,4.1155,4.1087,4.1085,4.1084,4.1068,4.1064,4.1061,0,0,0,0,0,4.123,4.1206,4.1212,4.1208,4.1188,4.117,4.1167,4.117,4.1181,4.117,4.1167,4.1173,4.1135,4.1147,4.1142,4.1127,4.1088,4.1086,4.1084,4.1069,4.1065,4.1061,0,0,0,0,0,0,4.1208,4.1205,4.1211,4.1185,4.1178,4.1173,4.1158,4.1165,4.1153,4.1155,4.1158,4.1155,4.1132,4.1127,4.114,4.11,4.1113,4.111,4.1104,4.11,4.1096,4.1098,4.1154,0,0,0,0,0,4.1201,4.1188,4.1186,4.1163,4.1159,4.116,4.1152,4.1155,4.1147,4.1144,4.1139,4.1131,4.1118,4.1108,4.1095,4.1067,4.1066,4.1055,4.1052,4.1049,4.1046,4.1034,4.103,4.1076,4.1076,4.1076,0,0,4.1184,4.1181,4.1172,4.1158,4.1153,4.114,4.1157,4.1141,4.1131,4.1141,4.112,4.1117,4.1108,4.1083,4.1072,4.1078,4.1034,4.1047,4.1045,4.1043,4.1032,4.1028,4.1024,4.1075,4.1075,4.1075,0,0,4.1148,4.1144,4.1126,4.1122,4.1115,4.1116,4.1112,4.1107,4.1106,4.1086,4.1094,4.1082,4.1058,4.1052,4.1046,4.1012,4.1018,4.1008,4.099,4.0979,4.0975,4.0972,4.0962,4.0958,4.1005,4.1005,4.1005,0,4.1128,4.1109,4.1115,4.11,4.1094,4.1106,4.1088,4.1083,4.1072,4.1068,4.1076,4.1049,4.1043,4.1019,4.1012,4.1005,4.1002,4.1009,4.0975,4.0972,4.0969,4.096,4.0956,4.1004,4.1004,4.1004,4.1004,0,4.1086,4.1073,4.1059,4.1051,4.1044,4.1027,4.1031,4.1023,4.1028,4.1028,4.1009,4.1003,4.0991,4.0986,4.0988,4.0963,4.0968,4.0975,4.0989,4.0964,4.0955,4.0951,4.1002,4.1003,4.1003,4.1003,0,0,4.1032,4.1032,4.1026,4.1025,4.102,4.101,4.0995,4.0986,4.098,4.0972,4.0961,4.0942,4.0951,4.0944,4.0947,4.0937,4.0914,4.0946,4.0946,4.0942,4.0888,4.0882,4.0878,4.0918,4.0917,4.0917,4.0889,0,4.0997,4.0973,4.098,4.0955,4.0945,4.0957,4.0945,4.0941,4.0942,4.0933,4.0933,4.0921,4.0932,4.0929,4.0919,4.0918,4.0903,4.092,4.0907,4.0907,4.091,4.0873,4.0866,4.084,4.0885,4.0885,4.0884,0,4.0952,4.0947,4.0922,4.0924,4.0919,4.0908,4.0902,4.0893,4.0889,4.0891,4.0886,4.0892,4.0878,4.0892,4.0874,4.0886,4.0881,4.088,4.0879,4.0878,4.0894,4.0872,4.0832,4.0828,4.0878,4.0879,4.0879,0,4.0918,4.0905,4.0889,4.0887,4.0887,4.088,4.0879,4.0877,4.0872,4.0866,4.0863,4.0855,4.0851,4.0845,4.0849,4.0859,4.083,4.0844,4.0832,4.0832,4.0825,4.0825,4.0784,4.0821,4.0821,4.0821,4.0821,0,4.0879,4.0863,4.0875,4.0865,4.0849,4.0858,4.0841,4.0842,4.0841,4.0832,4.0842,4.0833,4.0839,4.0831,4.0834,4.082,4.0817,4.0818,4.0819,4.0818,4.0818,4.0814,4.0817,4.082,4.082,4.082,4.082,0,4.0837,4.0844,4.0828,4.0832,4.0832,4.0821,4.0823,4.0815,4.0818,4.0807,4.0805,4.0809,4.08,4.0805,4.0794,4.0797,4.0779,4.0782,4.0781,4.0782,4.077,4.0771,4.0726,4.0721,4.0759,4.0759,4.0759,0,4.0812,4.0801,4.0805,4.0801,4.0801,4.0793,4.0789,4.0798,4.0794,4.0792,4.0784,4.0777,4.0771,4.0757,4.0759,4.0753,4.0756,4.0741,4.0755,4.0755,4.0758,4.0759,4.0759,4.0738,4.0737,4.0737,4.0737,0,4.0767,4.0772,4.0767,4.0764,4.076,4.0758,4.0756,4.0752,4.0761,4.0755,4.0748,4.0745,4.0737,4.073,4.0725,4.0725,4.0732,4.0733,4.073,4.0728,4.0729,4.073,4.0774,4.0733,4.0734,4.0734,4.0734,4.0734,4.0733,4.0726,4.0729,4.0724,4.0724,4.0723,4.0717,4.0721,4.0715,4.0711,4.0717,4.0709,4.0709,4.0703,4.0702,4.0696,4.0702,4.0697,4.0696,4.0695,4.0694,4.073,4.0695,4.0695,4.0695,4.0695,4.0695,0,4.069,4.0694,4.0689,4.0689,4.0685,4.0695,4.0695,4.0691,4.0685,4.0685,4.0681,4.0674,4.0669,4.0672,4.0668,4.0662,4.0666,4.0661,4.0662,4.0662,4.0688,4.0692,4.0658,4.0658,4.0658,4.0658,4.0658,4.0658,4.0667,4.0656,4.0662,4.0652,4.0655,4.0649,4.0648,4.0648,4.0649,4.0642,4.0638,4.0641,4.0643,4.064,4.0636,4.0637,4.0635,4.0629,4.0632,4.0656,4.066,4.0663,4.0667,4.0629,4.0628,4.0606,4.0606,4.0606]}]]